Printer-friendly version

IAU Minor Planet Center

Minor Planet Center

MPEC 2008-O30 : 2008 JS14

The following Minor Planet Electronic Circular may be linked-to from your own Web pages, but must not otherwise be redistributed electronically.


Read MPEC 2008-O29 Read MPEC 2008-O31


M.P.E.C. 2008-O30                                Issued 2008 July 26, 16:12 UT

     The Minor Planet Electronic Circulars contain information on unusual
         minor planets and routine data on comets.  They are published
   on behalf of Commission 20 of the International Astronomical Union by the
          Minor Planet Center, Smithsonian Astrophysical Observatory,
                          Cambridge, MA 02138, U.S.A.

             Prepared using the Tamkin Foundation Computer Network

                              MPC@CFA.HARVARD.EDU
          URL http://www.cfa.harvard.edu/iau/mpc.html  ISSN 1523-6714

                                   2008 JS14

Observations:
     K08J14S* C2008 05 06.77759 21 52 36.342-16 27 18.29MPS24910919.1 V EO030E12
     K08J14S  C2008 05 07.79594 21 53 31.792-16 16 20.46         18.7 V EO030E12
     K08J14S  C2008 05 08.73950 21 54 22.465-16 06 10.72         19.0 V EO030E12
     K08J14S  C2008 05 31.72226 22 10 40.534-11 59 27.39         18.7 R EO030E12
     K08J14S  C2008 06 10.39962 22 14 47.76 -10 17 29.7          18.5 V EO030703
     K08J14S  C2008 06 10.40615 22 14 47.94 -10 17 26.0          18.6 V EO030703
     K08J14S  C2008 06 10.41267 22 14 48.04 -10 17 21.5          18.6 V EO030703
     K08J14S  C2008 06 10.41922 22 14 48.15 -10 17 16.8          18.4 V EO030703
     K08J14S  C2008 07 25.36414 22 08 54.70 -03 11 30.1          17.6 V EO030703
     K08J14S  C2008 07 25.36829 22 08 54.49 -03 11 28.0          17.9 V EO030703
     K08J14S  C2008 07 25.37245 22 08 54.34 -03 11 25.7          17.6 V EO030703
     K08J14S  C2008 07 25.37659 22 08 54.20 -03 11 24.3          17.9 V EO030703
     K08J14S  C2008 07 26.55784 22 08 13.237-03 01 55.74         17.6 V EO030E12
     K08J14S  C2008 07 26.61727 22 08 11.070-03 01 27.63         17.8 R EO030E12

Observer details:
703 Catalina Sky Survey.  Observer R. E. Hill.  Measurers E. C. Beshore,
    A. Boattini, G. J. Garradd, A. R. Gibbs, A. D. Grauer, R. E. Hill,
    R. A. Kowalski, S. M. Larson, R. H. McNaught.  0.68-m Schmidt + CCD.
E12 Siding Spring Survey.  Observers R. H. McNaught, G. J. Garradd.  Measurer
    R. H. McNaught.  0.5-m Uppsala Schmidt + CCD.

Orbital elements:
2008 JS14
Epoch 2008 May 14.0 TT = JDT 2454600.5                  MPC
M 359.22931              (2000.0)            P               Q
n   0.02454704     Peri.    2.05212     +0.69453176     +0.64153793
a  11.7256435      Node   312.15309     -0.66619273     +0.40252515
e   0.7443135      Incl.   26.05780     -0.27168526     +0.65299509
P  40.15           H   13.2           G   0.15           U   3
Residuals in seconds of arc
080506 E12  0.1+  0.2-    080610 703  0.4+  0.5-    080725 703  0.3-  0.5+
080507 E12  0.1-  0.1+    080610 703  0.1+  0.1-    080725 703  0.2-  0.1-
080508 E12  0.0   0.2+    080610 703  0.1-  0.6+    080726 E12  0.0   0.2-
080531 E12  0.1+  0.0     080725 703  0.6+  0.0     080726 E12  0.2+  0.3-
080610 703  0.4-  0.1-    080725 703  0.3-  0.2+

Ephemeris:
2008 JS14                a,e,i = 11.73, 0.74, 26                 q = 2.9981
Date    TT    R. A. (2000) Decl.     Delta      r     Elong.  Phase     V
2008 07 23    22 10.21   -03 30.7    2.117    3.016   146.4    10.7    17.9
2008 08 02    22 04.13   -02 13.0    2.071    3.027   156.0     7.8    17.7
2008 08 12    21 56.93   -01 05.3    2.052    3.040   164.4     5.1    17.6
2008 08 22    21 49.31   -00 08.1    2.059    3.055   167.7     4.0    17.6
2008 09 01    21 42.05   +00 38.7    2.094    3.072   162.7     5.6    17.7
2008 09 11    21 35.88   +01 16.5    2.156    3.092   153.9     8.2    17.9
2008 09 21    21 31.35   +01 47.4    2.243    3.114   144.4    10.8    18.1
2008 10 01    21 28.79   +02 14.2    2.351    3.138   134.8    13.1    18.3
2008 10 11    21 28.35   +02 39.6    2.477    3.164   125.6    14.9    18.5
2008 10 21    21 29.99   +03 06.1    2.617    3.191   116.7    16.2    18.7
2008 10 31    21 33.55   +03 35.4    2.769    3.221   108.3    17.0    18.9
2008 11 10    21 38.85   +04 09.3    2.929    3.253   100.1    17.4    19.0
2008 11 20    21 45.64   +04 48.6    3.094    3.286    92.3    17.5    19.2
2008 11 30    21 53.71   +05 34.0    3.261    3.320    84.8    17.2    19.3
2008 12 10    22 02.86   +06 25.8    3.428    3.357    77.6    16.6    19.4
2008 12 20    22 12.86   +07 24.0    3.593    3.394    70.5    15.9    19.5
2008 12 30    22 23.57   +08 28.3    3.754    3.434    63.7    14.9    19.6

Gareth V. Williams           (C) Copyright 2008 MPC           M.P.E.C. 2008-O30

Read MPEC 2008-O29 Read MPEC 2008-O31


Our Web policy. Index to the CBAT/MPC/ICQ pages.


Valid HTML 4.01!